LogoCoinalyze
    Ad-Free Version ホーム マーケット一覧 資金調達率一覧
    先物データ
    • 集計データ (コイン一覧)
    • 個別チャート
    • 全体チャート
    アラート
    TA
    Bitcoin Ethereum BNB Ripple Tron ZCash Dogecoin Monero Chainlink UNUS SED LEO Cardano Stellar Lumens Bitcoin Cash Litecoin Hedera Cronos Polkadot Ethereum Classic Dash Algorand Cosmos Quant VeChain Bitcoin SV BitTorrent Decred Terra Tezos The Graph Iota THETA NEO Decentraland MultiversX Chiliz Horizen Golem Basic Attention Token Qtum 0x DigiByte Beam RIF Token FTX Token FUNToken Holo aelf Ontology Enjin Coin Zilliqa Nano Ravencoin Verge Mask Network Siacoin Status WINk Waves IoTeX Power Ledger iExec RLC Steem Kyber Network Crystal Lisk Ark Ardor WOO Network IOST WAX Icon Storj Wanchain Loopring Bitcoin Diamond AdEx Bitcoin Gold Augur OmiseGO NEM BitShares MonaCoin Ren Komodo V Systems Nuls Mithril SOLVE Maker EOS Aion HedgeTrade Nebulas TomoChain Metaverse ETP GXChain MaidSafeCoin QASH Polygon Fetch.ai Fantom Waltonchain Bread Bytom
    注文する:
    その他
    • API
    • ローソク足パターン
    • 寄付する
    • お問い合わせ
    • サイトマップ
    • Privacy Policy
    • Disclaimer
    • Theme:
    日本語
    • English
    • Français
    • Русский
    • Deutsch
    • Türkçe
    • Nederlands
    • Português (BR)
    • Español
    • 한국어
    • 简体中文
     
    ログイン / サインアップ
    Markets/ Pepe/ PEPE to GBP/ PEPEGBP Kraken
    Trades
    WL
    チャット
    統計
    ニュース
    ⦷
    AAA
    0.000002559 80982.41591000 03:18:42
    0.000002559 78074547.08780999 02:33:27
    0.000002564 1749675981.03225994 02:33:26
    0.000002604 1524447095.01821995 21:55:24
    0.000002605 23173895.09000000 21:55:24
    0.000002649 764277.08569000 20:07:25
    0.000002648 55881958.32702000 20:07:25
    0.000002640 40934809.32240001 19:27:20
    0.000002640 1368451672.84391999 19:27:20
    0.000002610 9721583.24100000 17:35:40
    0.000002610 22674947.50700000 17:35:40
    0.000002610 22675426.52700000 17:35:39
    0.000002623 1451591730.80321002 16:34:40
    0.000002600 64781265.53000000 16:07:29
    0.000002584 193498.47061000 14:48:43
    0.000002584 9481424.13000000 14:48:43
    0.000002593 1478752486.97352004 14:41:31
    0.000002608 513669.29551000 14:37:47
    0.000002608 37829888.98670000 14:37:45
    0.000002629 9238871.16000000 13:56:40
    0.000002604 16448787.17352000 13:36:08
    0.000002604 142051103.21090999 13:36:08
    0.000002606 141960919.14096001 13:36:08
    0.000002608 56726524.58777000 13:36:08
    0.000002610 56696705.30739000 13:36:08
    0.000002612 56651896.91997000 13:36:08
    0.000002612 56651163.25188000 13:36:08
    0.000002616 21171735.47401000 13:35:26
    0.000002615 56594546.54665000 13:35:26
    0.000002608 5685383.97374000 12:32:11
    0.000002608 5685468.13184000 12:32:10
    0.000002607 5687250.47843000 12:32:10
    0.000002700 1173321127.94002008 12:30:08
    0.000002700 1272637952.00000000 12:30:08
    0.000002715 2075242958.51568007 12:30:06
    0.000002724 54269338.26146000 12:30:02
    0.000002732 1435670511.25135994 12:30:01
    0.000002717 2015080.58043000 09:55:22
    0.000002720 54316820.75519000 09:54:40
    0.000002719 54392105.92013000 09:54:40
    0.000002722 9211225.00000000 09:33:11
    0.000002702 28397119.17519000 03:39:10
    0.000002703 136733299.62413001 03:39:10
    0.000002705 136632202.91461000 03:39:10
    0.000002707 53234410.63514000 03:39:10
    0.000002708 136459270.16689000 03:39:10
    0.000002709 54559075.37256000 03:39:10
    0.000002710 54554843.34148000 03:39:10
    0.000002702 276111576.33819997 03:38:30
    0.000002703 136711100.24403000 03:38:30
    0.000002705 54630094.05960000 03:38:30
    0.000002707 53974980.42112000 03:38:30
    0.000002707 54593074.36959000 03:38:30
    0.000002709 54552000.48517000 03:38:30
    0.000002710 54540436.46132000 03:38:30
    0.000002711 54531708.03517000 03:38:30
    0.000002740 36496350.36496000 23:42:50
    0.000002712 54280499.17117000 22:54:58
    0.000002712 64781265.53000000 22:54:58
    0.000002716 54430740.86000000 22:53:40
    0.000002715 27148041.32406000 22:53:40
    0.000002716 27277018.11594000 22:53:40
    0.000002717 54316277.34670000 22:53:40
    0.000002716 54425059.44000000 22:53:40
    0.000002717 54316277.34670000 22:53:40
    0.000002716 54425059.44000000 22:53:40
    0.000002717 54316277.34670000 22:53:40
    0.000002717 54425059.44000000 22:53:40
    0.000002717 54422713.46000000 22:53:39
    0.000002717 54423006.11000000 22:53:39
    0.000002717 54423006.11000000 22:53:39
    0.000002717 54422396.75000000 22:53:39
    0.000002717 54419179.66000000 22:53:38
    0.000002717 54419209.29000000 22:53:38
    0.000002715 54419209.29000000 22:53:38
    0.000002717 54310438.89127000 22:53:38
    0.000002715 54310500.75530000 22:53:38
    0.000002717 108770.53470000 22:53:38
    0.000002717 54310500.76820000 22:53:38
    0.000002717 54428732.23000000 22:53:38
    0.000002783 5343783.39863000 20:34:40
    0.000002780 53182718.47842000 20:34:21
    0.000002824 6320993.50000000 19:24:25
    0.000002826 2236104.00000000 18:59:21
    0.000002825 2332505.00000000 18:57:25
    0.000002824 2435945.00000000 18:52:29
    0.000002825 8376929.27000000 16:33:39
    0.000002816 13320722.36096000 16:33:18
    0.000002816 40479749.99904000 16:33:14
    0.000002789 17422015.05916000 15:46:19
    0.000002820 19142.42051000 15:38:11
    0.000002820 38265696.77949000 15:38:11
    0.000002745 53824694.58187000 15:22:31
    0.000002687 23239337.55117000 14:42:55
    0.000002683 138043786.90685999 14:42:55
    0.000002682 138094447.82824001 14:42:55
    0.000002680 138177776.51161000 14:42:55
    0.000002677 55347519.70725000 14:42:55
    0.000002676 55367473.27116000 14:42:55
    0.000002670 16802704.11985000 14:41:10
    ログアウト
    AAA
    ヘルプ
    🙂 🤣 😎 🤗 😛 😉 😜 🤑 🤔 😑 😴 😕 🙃 😲 😇 🙁 😢 😬 😟 😠 🕺 🏃 💪 ✌ 👌 👍 👎 👏 👋 🤝 🍺 🍻 🐋 🐟 🦈 🗽 🚄 ✈ 🛑 🚀 🏦 🌚 ⭐ 🌞 ⚡ 🏆 💰 💲 🔨 ❓ ❗ 💯 🔶 🏁
    ☺
    ログイン または サインアップ してチャット
    24時間
    変化
    -5.61%
    出来高
    16,042,243,807
    最高値
    0.000002732
    最安値
    0.000002559
    7日間
    変化
    -6.40%
    出来高
    24,722,030,343
    最高値
    0.000002826
    最安値
    0.000002493
    30日間
    変化
    +19.75%
    出来高
    89,065,104,032
    最高値
    0.000003300
    最安値
    0.000001878
    DOGE, SHIB, PEPE, or Something Else: Which Meme Coin Can Make History in September? (3 AIs Weigh In)
    "DOGE remains the most likely to record the largest move in dollar terms and lead the entire sector," ChatGPT stated.
    cryptopotato.com
    Sept 3, 2026 00:41
    Pepe price rallies 25% as whale demand and futures interest surge
    Key takeaways Pepe has gained 25% this week, including a combined 22% advance over the previous two days. Seven whale transactions worth more than $1 million each occurred Thursday, the highest...
    coinjournal.net
    Aug 21, 2026 08:41
    PEPE Supply on Exchanges Just Took a Massive Hit – What’s Next?
    A drop in PEPE exchange balances has added to bullish expectations despite muted trader interest.
    cryptopotato.com
    Aug 6, 2026 20:02
    PEPE Exchange Outflows Hit Nearly 2-Year High as Whales Accumulate
    Pepe (PEPE) recorded its largest single-day exchange outflow since November 2024, with 4.54 trillion tokens leaving trading platforms, signaling that holders are moving supply away from immediate...
    beincrypto.com
    Aug 6, 2026 04:57
    Meme Coin Based on White House Shooter Conspiracy Rallies 320%
    $HENRY surged 300% after a 2023 Pepe tweet appeared to name the White House shooter, fueling a viral time-travel meme. The post Meme Coin Based on White House Shooter Conspiracy Rallies 320%...
    beincrypto.com
    Apr 27, 2026 16:11
    PEPE surges 4% as market sentiment improves, eyes Key resistance breakout
    Key takeaways Pepe extends gains on Wednesday, stretching its rally from the 50-day EMA. Derivatives data show heightened retail activity as risk-on sentiment returns to the market. Pepe (PEPE) is...
    coinjournal.net
    Apr 22, 2026 11:44
    Why The PEPE Price Could Stage A 55X Rally To Reach New $0.0001 ATH
    The PEPE price has now started to edge back into bullish conversations after the recent inflows into the crypto market. The last time PEPE’s weekly chart printed the kind of structure now...
    newsbtc.com
    Apr 21, 2026 15:30
    Pepe (PEPE) surges 9%, drawing interest from whales
    Key takeaways PEPE is up 9% in the last 24 hours, making it one of the best performers among the top 50 cryptocurrencies by market cap. The rally comes amid renewed interest from whales and retail...
    coinjournal.net
    Apr 16, 2026 07:40
    Murad Says SPX6900 (SPX) Is Primed for a Rally — Is He Right This Time?
    Crypto influencer Murad Mahmudov claims SPX6900 (SPX) is stabilizing at the same market cap level where Dogecoin (DOGE) and Pepe (PEPE) consolidated before their explosive rallies. The...
    beincrypto.com
    Apr 5, 2026 21:36
    The Shiba Inu Of This Cycle: Analyst Shares Why It Is Better To Buy PEPE Now
    In the bull market cycle of 2021-2022, the Shiba Inu meme coin made waves in a way that changed the face of meme coins forever. This came after Dogecoin’s initial 36,000% rally, and Shiba Inu...
    newsbtc.com
    Apr 4, 2026 07:30
    PEPE Explodes by 18% Amid Altcoin Rally, BTC Tapped $74K: Market Watch
    The frog-themed meme coin is today's biggest gainer, followed by TAO, DOT, and BONK.
    cryptopotato.com
    Mar 16, 2026 10:56
    Should PEPE traders brace for volatility as short squeeze potential builds?
    The memecoin market has seen its collective market capitalization drop by 48% over the past year, and 6.9% over the past month, according to CoinMarketCap. According to Glassnode, the memecoin...
    ambcrypto.com
    Mar 7, 2026 18:00
    チャットでコマンドを入力するだけです。 nick1を実際のニックネームに置き換えてください
    • /ignore nick1 チャットユーザーを無視する
    • /unignore nick1 チャットユーザーを無視しない
    • /ignorelist 無視したチャットユーザーを表示する